"Pseudo-MPEC" for P11JonL

Created 2023 Sep 27 2:22:12 UT using Find_Orb

Click here for an explanation of pseudo-MPECs

 
 Astrometry: 
     P11JonL* C2023 09 13)H5c/v!od6a1RyMbk#%A]k3VD-:RfQAstrometry54@SxpTm5EsvF51
     P11JonL  C2023 09 130v7BA:redacted;Gbw8PS67GCclick#RXkL1CB@6W?d.OD^ff%ZgF51
     P11JonL  C2023 09 13AWYqdo.ehere8eqforK1C6T?VEQucexplanation_J-CjMJnC[MoF51

Station data:
(F51) Pan-STARRS 1, Haleakala  (N20.707234 W156.255910)  US/Hawaii.
   Observers J. Bulger, T. Lowe, A. Schultz, M. Willman. Measurers K.
   Chambers, S. Chastel, T. de Boer, L. Denneau, J. Fairlamb, H. Flewelling,
   M. Huber, C.-C. Lin, E. Magnier, Y. Ramanjooloo, R. Wainscoat, R. Weryk.
   1.8-m Ritchey-Chrétien + CCD.

Orbital elements:  P11JonL
   Perihelion 2024 Aug 19.62166 +/- 795 TT = 14:55:11 (JD 2460542.12166)
Epoch 2023 Sep 13.0 TT = JDT 2460200.5   Ju: 0.8940              AutoNEOCP
M 339.52479029 +/- 51               (J2000 ecliptic)
n   0.05993533 +/- 0.0903           Peri.  340.15707 +/- 100
a   6.46667069 +/- 6.49             Node    48.78203 +/- 44
e   0.3764622 +/- 0.217             Incl.   26.77920 +/- 32
P  16.44                   H 14.94  G  0.15   U 11.2  SR
q 4.03221311 +/- 1.77    Q 8.90112827 +/- 59.6
From 3 observations 2023 Sept. 13 (42.3 min); mean residual 0".06
Residuals in arcseconds: 
230913 F51  .01+  .04+    230913 F51  .02-  .11-    230913 F51  .01+  .08+    

Ephemerides (geocentric):
Date (UTC) HH   RA             Dec           delta  r     elong  mag " sig PA
---- --------  ------------   ------------  ------ ------ -----  --- --------
2023 09 27 02  23 47 46.573   -34 32 57.57  3.5237 4.3716 143.6 21.4 4046 119
2023 09 27 03  23 47 44.935   -34 32 55.31  3.5238 4.3715 143.6 21.4 4073 119
2023 09 27 04  23 47 43.298   -34 32 53.03  3.5240 4.3715 143.6 21.4 4102 119
2023 09 27 05  23 47 41.662   -34 32 50.74  3.5241 4.3714 143.6 21.4 4130 119
2023 09 27 06  23 47 40.025   -34 32 48.43  3.5242 4.3713 143.5 21.4 4159 119
2023 09 27 07  23 47 38.390   -34 32 46.10  3.5243 4.3712 143.5 21.4 4188 119
2023 09 27 08  23 47 36.754   -34 32 43.75  3.5244 4.3711 143.5 21.4 4217 119
2023 09 27 09  23 47 35.119   -34 32 41.38  3.5245 4.3711 143.5 21.4 4246 119
2023 09 27 10  23 47 33.485   -34 32 39.00  3.5247 4.3710 143.5 21.4 4276 119
2023 09 27 11  23 47 31.851   -34 32 36.59  3.5248 4.3709 143.4 21.4 4306 119
2023 09 27 12  23 47 30.217   -34 32 34.17  3.5249 4.3708 143.4 21.4 4336 120
2023 09 27 13  23 47 28.584   -34 32 31.73  3.5250 4.3707 143.4 21.4 4366 120
2023 09 27 14  23 47 26.951   -34 32 29.27  3.5251 4.3707 143.4 21.4 4397 120
2023 09 27 15  23 47 25.318   -34 32 26.79  3.5253 4.3706 143.3 21.4 4428 120
2023 09 27 16  23 47 23.686   -34 32 24.30  3.5254 4.3705 143.3 21.4 4460 120
2023 09 27 17  23 47 22.055   -34 32 21.78  3.5255 4.3704 143.3 21.4 4491 120
2023 09 27 18  23 47 20.424   -34 32 19.25  3.5256 4.3703 143.3 21.4 4523 120
2023 09 27 19  23 47 18.793   -34 32 16.70  3.5258 4.3703 143.3 21.4 4555 120
2023 09 27 20  23 47 17.163   -34 32 14.13  3.5259 4.3702 143.2 21.4 4588 120
2023 09 27 21  23 47 15.533   -34 32 11.54  3.5260 4.3701 143.2 21.4 4621 120
2023 09 27 22  23 47 13.903   -34 32 08.93  3.5261 4.3700 143.2 21.4 4654 121
2023 09 27 23  23 47 12.274   -34 32 06.31  3.5262 4.3699 143.2 21.4 4687 121
2023 09 28 00  23 47 10.646   -34 32 03.67  3.5264 4.3699 143.1 21.4 4721 121
2023 09 28 01  23 47 09.018   -34 32 01.01  3.5265 4.3698 143.1 21.4 4755 121
2023 09 28 02  23 47 07.390   -34 31 58.32  3.5266 4.3697 143.1 21.4 4790 121
2023 09 28 03  23 47 05.763   -34 31 55.63  3.5268 4.3696 143.1 21.4 4824 121
2023 09 28 04  23 47 04.136   -34 31 52.91  3.5269 4.3695 143.1 21.4 4860 121
2023 09 28 05  23 47 02.510   -34 31 50.17  3.5270 4.3695 143.0 21.4 4895 121
2023 09 28 06  23 47 00.884   -34 31 47.42  3.5271 4.3694 143.0 21.4 4931 121
2023 09 28 07  23 46 59.258   -34 31 44.65  3.5273 4.3693 143.0 21.4 4967 122
2023 09 28 08  23 46 57.634   -34 31 41.86  3.5274 4.3692 143.0 21.4 5004 122
2023 09 28 09  23 46 56.009   -34 31 39.05  3.5275 4.3691 142.9 21.4 5040 122
2023 09 28 10  23 46 54.385   -34 31 36.22  3.5276 4.3691 142.9 21.4 5078 122
2023 09 28 11  23 46 52.762   -34 31 33.37  3.5278 4.3690 142.9 21.4 5115 122
2023 09 28 12  23 46 51.138   -34 31 30.51  3.5279 4.3689 142.9 21.4 5153 122
2023 09 28 13  23 46 49.516   -34 31 27.63  3.5280 4.3688 142.8 21.4 5192 122
2023 09 28 14  23 46 47.894   -34 31 24.73  3.5282 4.3687 142.8 21.4 5231 122
2023 09 28 15  23 46 46.272   -34 31 21.81  3.5283 4.3687 142.8 21.4 5270 122
2023 09 28 16  23 46 44.651   -34 31 18.87  3.5284 4.3686 142.8 21.4 5310 123
2023 09 28 17  23 46 43.030   -34 31 15.91  3.5286 4.3685 142.8 21.4 5350 123
2023 09 28 18  23 46 41.410   -34 31 12.94  3.5287 4.3684 142.7 21.4 5390 123
2023 09 28 19  23 46 39.790   -34 31 09.94  3.5288 4.3683 142.7 21.4 5431 123
2023 09 28 20  23 46 38.171   -34 31 06.93  3.5290 4.3683 142.7 21.4 5473 123
2023 09 28 21  23 46 36.552   -34 31 03.90  3.5291 4.3682 142.7 21.4 5515 123
2023 09 28 22  23 46 34.934   -34 31 00.85  3.5292 4.3681 142.6 21.4 5557 123
2023 09 28 23  23 46 33.316   -34 30 57.78  3.5294 4.3680 142.6 21.4 5600 123
2023 09 29 00  23 46 31.699   -34 30 54.70  3.5295 4.3680 142.6 21.4 5643 124
2023 09 29 01  23 46 30.082   -34 30 51.59  3.5296 4.3679 142.6 21.4 5687 124